Home > Weather > Kuujjuaq > Past weeks

Flag for Canada Weather for the Past 2 Weeks in Kuujjuaq, Quebec, Canada

Now
-17 °F

Snow flurries. Passing clouds.


Feels Like: -27 °F
Forecast: -17 / -10 °F
Wind: 3 mph from West

Location: Kuujjuaq

Current Time: Feb 7, 2016 at 7:22:26 PM

Latest Report: Feb 7, 2016 at 6:00 PM


Visibility: 15 mi

Pressure: 30.20 "Hg

Humidity: 63%

Dew point: -26 °F

Location of KuujjuaqLocation

Historic Weather in Kuujjuaq — Graph

°F

Kuujjuaq Temperature Yesterday

Maximum temperature yesterday: -13 °F (at 1:00 PM)
Minimum temperature yesterday: -27 °F (at 7:00 AM)
Average temperature yesterday: -20 °F

High & Low Weather Summary for the Past Weeks

 TemperatureHumidityPressure
High5 °F (Feb 1, 6:00 AM)85% (Jan 26, 1:00 AM)30.28 "Hg (Jan 26, 1:00 AM)
Low-42 °F (Jan 30, 5:00 AM)53% (Feb 3, 12:00 PM)29.32 "Hg (Jan 31, 10:00 PM)
Average-17 °F70%29.84 "Hg
* Reported Jan 23 5:00 PM — Feb 7 5:00 PM, Kuujjuaq, Weather by CustomWeather, © 2016

Note: Actual official high and low records may vary slightly from our data, if they occured in-between our weather recording intervals... More about our weather records

Advertising

Kuujjuaq Weather History for the Previous 24 Hours

 ConditionsComfort  
Time TempWeatherWind HumidityBarometerVisibility
5:00 PM
Sun, Feb 7
-17 °FSnow flurries. Passing clouds.8 mph63%30.19 "Hg15 mi
4:00 PM-15 °FSnow flurries. Passing clouds.8 mph57%30.16 "Hg15 mi
3:00 PM-13 °FSnow flurries. Scattered clouds.12 mph57%30.13 "Hg15 mi
2:00 PM-13 °FSnow flurries. Scattered clouds.9 mph57%30.11 "Hg15 mi
1:00 PM-11 °FSnow flurries. Partly sunny.5 mph58%30.08 "Hg5 mi
12:00 PM-13 °FSnow flurries. Partly sunny.7 mph57%30.06 "Hg15 mi
11:00 AM-15 °FSnow flurries. Partly sunny.5 mph57%30.06 "Hg12 mi
10:00 AM-18 °FSnow flurries. Partly sunny.6 mph56%30.05 "Hg15 mi
9:00 AM-22 °FSnow flurries. Partly sunny.3 mph68%30.03 "Hg12 mi
8:00 AM-24 °FSnow flurries. Partly sunny.6 mph75%30.01 "Hg12 mi
7:00 AM-22 °FSnow flurries. Passing clouds.3 mph68%29.99 "Hg15 mi
6:00 AM-22 °FSnow flurries. Passing clouds.8 mph68%29.97 "Hg15 mi
5:00 AM-22 °FSnow flurries. Passing clouds.6 mph68%29.97 "Hg15 mi
4:00 AM-22 °FSnow flurries. Passing clouds.6 mph75%29.96 "Hg15 mi
3:00 AM-22 °FSnow flurries. Passing clouds.5 mph75%29.95 "Hg15 mi
2:00 AM-20 °FSnow flurries. Passing clouds.2 mph68%29.94 "Hg15 mi
1:00 AM-22 °FSnow flurries. Passing clouds.3 mph75%29.93 "Hg15 mi
12:00 AM-20 °FSnow flurries. Passing clouds.2 mph68%29.93 "Hg15 mi
11:00 PM
Sat, Feb 6
-20 °FSnow flurries. Passing clouds.3 mph68%29.93 "Hg15 mi
10:00 PM-20 °FSnow flurries. Passing clouds.3 mph68%29.93 "Hg15 mi
9:00 PM-20 °FSnow flurries. Passing clouds.6 mph75%29.93 "Hg15 mi
8:00 PM-18 °FSnow flurries. Passing clouds.3 mph69%29.94 "Hg15 mi
7:00 PM-18 °FSnow flurries. Passing clouds.5 mph69%29.93 "Hg15 mi
Weather by CustomWeather, © 2016

See weather overviewHow to use our weather pages